When you browse on this site, cookies collect data to enhance your experience and personalize the content and advertising you see.
Visit our Privacy Policy to learn more. By continuing to use the site, you agree to this use of cookies and data.
  • en France
  • Liste des pays
  • À 7 jours
  • Température de l'eau
  • Carte satellitaire
  • Carte météo
  • Widgets météo
  • user-avatar
    Se connecter

    Météo par heure à Bunbury

    Ce jour, 24 Mai, Vendredi

    Heure Température Précipitation Vent Pression Humidité
    00:00 +14°C° 0 mm 3 m/s 766 mmHg 84%
    01:00 +14°C° 0 mm 3 m/s 766 mmHg 83%
    02:00 +16°C° 0 mm 3 m/s 766 mmHg 81%
    03:00 +16°C° 0 mm 3 m/s 766 mmHg 81%
    04:00 +16°C° 0 mm 3 m/s 766 mmHg 81%
    05:00 +16°C° 0 mm 3 m/s 766 mmHg 80%
    06:00 +16°C° 0 mm 3 m/s 766 mmHg 79%
    07:00 +16°C° 0 mm 3 m/s 766 mmHg 78%
    08:00 +16°C° 0 mm 2 m/s 766 mmHg 77%
    09:00 +17°C° 0 mm 3 m/s 766 mmHg 72%
    10:00 +18°C° 0 mm 3 m/s 766 mmHg 67%
    11:00 +19°C° 0 mm 3 m/s 766 mmHg 61%
    12:00 +19°C° 0 mm 3 m/s 766 mmHg 61%
    13:00 +19°C° 0 mm 3 m/s 766 mmHg 60%
    14:00 +20°C° 0 mm 3 m/s 766 mmHg 60%
    15:00 +19°C° 0 mm 3 m/s 766 mmHg 64%
    16:00 +18°C° 0 mm 3 m/s 766 mmHg 68%
    17:00 +17°C° 0 mm 2 m/s 766 mmHg 72%
    18:00 +16°C° 0 mm 2 m/s 766 mmHg 76%
    19:00 +16°C° 0 mm 3 m/s 766 mmHg 80%
    20:00 +14°C° 0 mm 3 m/s 767 mmHg 84%
    21:00 +14°C° 0 mm 3 m/s 767 mmHg 84%
    22:00 +14°C° 0 mm 3 m/s 767 mmHg 84%
    23:00 +13°C° 0 mm 3 m/s 767 mmHg 85%

    Demain, 25 Mai, Samedi

    Heure Température Précipitation Vent Pression Humidité
    00:00 +13°C° 0 mm 3 m/s 767 mmHg 86%
    01:00 +13°C° 0 mm 2 m/s 767 mmHg 88%
    02:00 +13°C° 0 mm 2 m/s 767 mmHg 89%
    03:00 +12°C° 0 mm 2 m/s 767 mmHg 90%
    04:00 +11°C° 0 mm 3 m/s 767 mmHg 91%
    05:00 +11°C° 0 mm 3 m/s 767 mmHg 93%
    06:00 +11°C° 0 mm 3 m/s 767 mmHg 92%
    07:00 +11°C° 0 mm 3 m/s 767 mmHg 91%
    08:00 +11°C° 0 mm 3 m/s 768 mmHg 90%
    09:00 +13°C° 0 mm 3 m/s 768 mmHg 79%
    10:00 +16°C° 0 mm 3 m/s 768 mmHg 69%
    11:00 +18°C° 0 mm 3 m/s 768 mmHg 59%
    12:00 +19°C° 0 mm 2 m/s 767 mmHg 56%
    13:00 +19°C° 0 mm 2 m/s 767 mmHg 54%
    14:00 +20°C° 0 mm 2 m/s 767 mmHg 52%
    15:00 +19°C° 0 mm 2 m/s 767 mmHg 56%
    16:00 +18°C° 0 mm 3 m/s 767 mmHg 59%
    17:00 +17°C° 0 mm 4 m/s 767 mmHg 63%
    18:00 +15°C° 0 mm 4 m/s 767 mmHg 68%
    19:00 +13°C° 0 mm 4 m/s 768 mmHg 73%
    20:00 +12°C° 0 mm 4 m/s 768 mmHg 78%
    21:00 +12°C° 0 mm 4 m/s 768 mmHg 80%
    22:00 +11°C° 0 mm 4 m/s 768 mmHg 82%
    23:00 +11°C° 0 mm 4 m/s 768 mmHg 84%

    Après-demain, 26 Mai, Dimanche

    Heure Température Précipitation Vent Pression Humidité
    00:00 +10°C° 0 mm 4 m/s 768 mmHg 85%
    01:00 +10°C° 0 mm 4 m/s 768 mmHg 86%
    02:00 +10°C° 0 mm 4 m/s 768 mmHg 87%
    03:00 +10°C° 0 mm 4 m/s 768 mmHg 88%
    04:00 +10°C° 0 mm 4 m/s 768 mmHg 89%
    05:00 +8°C° 0 mm 4 m/s 768 mmHg 90%
    06:00 +10°C° 0 mm 4 m/s 768 mmHg 88%
    07:00 +10°C° 0 mm 4 m/s 769 mmHg 87%
    08:00 +9°C° 0 mm 5 m/s 769 mmHg 86%
    09:00 +12°C° 0 mm 5 m/s 769 mmHg 76%
    10:00 +14°C° 0 mm 5 m/s 769 mmHg 67%
    11:00 +17°C° 0 mm 5 m/s 769 mmHg 58%
    12:00 +18°C° 0 mm 4 m/s 768 mmHg 55%
    13:00 +19°C° 0 mm 4 m/s 768 mmHg 52%
    14:00 +20°C° 0 mm 4 m/s 767 mmHg 50%
    15:00 +19°C° 0 mm 5 m/s 767 mmHg 53%
    16:00 +16°C° 0 mm 5 m/s 767 mmHg 57%
    17:00 +15°C° 0 mm 5 m/s 768 mmHg 60%
    18:00 +14°C° 0 mm 5 m/s 768 mmHg 64%
    19:00 +13°C° 0 mm 5 m/s 768 mmHg 67%
    20:00 +12°C° 0 mm 5 m/s 769 mmHg 71%
    21:00 +12°C° 0 mm 5 m/s 769 mmHg 71%
    22:00 +12°C° 0 mm 5 m/s 769 mmHg 71%
    23:00 +10°C° 0 mm 5 m/s 769 mmHg 72%

    27 Mai, Lundi

    Heure Température Précipitation Vent Pression Humidité
    00:00 +10°C° 0 mm 5 m/s 769 mmHg 74%
    01:00 +10°C° 0 mm 5 m/s 769 mmHg 76%
    02:00 +10°C° 0 mm 5 m/s 768 mmHg 78%
    03:00 +9°C° 0 mm 5 m/s 768 mmHg 80%
    04:00 +9°C° 0 mm 5 m/s 768 mmHg 81%
    05:00 +9°C° 0 mm 5 m/s 768 mmHg 83%
    06:00 +9°C° 0 mm 5 m/s 768 mmHg 81%
    07:00 +10°C° 0 mm 5 m/s 769 mmHg 80%
    08:00 +10°C° 0 mm 5 m/s 769 mmHg 78%
    09:00 +13°C° 0 mm 5 m/s 769 mmHg 69%
    10:00 +15°C° 0 mm 5 m/s 769 mmHg 61%
    11:00 +19°C° 0 mm 5 m/s 768 mmHg 52%
    12:00 +20°C° 0 mm 5 m/s 768 mmHg 49%
    13:00 +21°C° 0 mm 5 m/s 767 mmHg 46%
    14:00 +22°C° 0 mm 5 m/s 766 mmHg 44%
    15:00 +21°C° 0 mm 5 m/s 766 mmHg 47%
    16:00 +20°C° 0 mm 5 m/s 766 mmHg 50%
    17:00 +17°C° 0 mm 5 m/s 766 mmHg 53%
    18:00 +16°C° 0 mm 5 m/s 767 mmHg 55%
    19:00 +15°C° 0 mm 5 m/s 767 mmHg 56%
    20:00 +14°C° 0 mm 5 m/s 767 mmHg 58%
    21:00 +14°C° 0 mm 5 m/s 767 mmHg 57%
    22:00 +14°C° 0 mm 6 m/s 767 mmHg 56%
    23:00 +14°C° 0 mm 6 m/s 767 mmHg 54%

    28 Mai, Mardi

    Heure Température Précipitation Vent Pression Humidité
    00:00 +13°C° 0 mm 6 m/s 767 mmHg 54%
    01:00 +13°C° 0 mm 6 m/s 767 mmHg 54%
    02:00 +13°C° 0 mm 6 m/s 766 mmHg 54%
    03:00 +13°C° 0 mm 6 m/s 766 mmHg 56%
    04:00 +13°C° 0 mm 6 m/s 766 mmHg 57%
    05:00 +11°C° 0 mm 6 m/s 766 mmHg 58%
    06:00 +13°C° 0 mm 6 m/s 767 mmHg 58%
    07:00 +13°C° 0 mm 6 m/s 767 mmHg 58%
    08:00 +13°C° 0 mm 5 m/s 767 mmHg 58%
    09:00 +15°C° 0 mm 5 m/s 767 mmHg 53%
    10:00 +19°C° 0 mm 5 m/s 767 mmHg 48%
    11:00 +21°C° 0 mm 5 m/s 767 mmHg 43%
    12:00 +22°C° 0 mm 4 m/s 766 mmHg 41%
    13:00 +23°C° 0 mm 4 m/s 766 mmHg 39%
    14:00 +25°C° 0 mm 4 m/s 765 mmHg 38%
    15:00 +23°C° 0 mm 4 m/s 765 mmHg 41%
    16:00 +22°C° 0 mm 4 m/s 766 mmHg 44%
    17:00 +21°C° 0 mm 4 m/s 766 mmHg 47%
    18:00 +20°C° 0 mm 5 m/s 766 mmHg 47%
    19:00 +19°C° 0 mm 5 m/s 766 mmHg 48%
    20:00 +17°C° 0 mm 5 m/s 767 mmHg 48%
    21:00 +17°C° 0 mm 6 m/s 767 mmHg 46%
    22:00 +16°C° 0 mm 6 m/s 767 mmHg 43%
    23:00 +16°C° 0 mm 6 m/s 767 mmHg 41%

    29 Mai, Mercredi

    Heure Température Précipitation Vent Pression Humidité
    00:00 +16°C° 0 mm 6 m/s 767 mmHg 42%
    01:00 +16°C° 0 mm 6 m/s 767 mmHg 43%
    02:00 +15°C° 0 mm 6 m/s 767 mmHg 44%
    03:00 +15°C° 0 mm 6 m/s 767 mmHg 45%
    04:00 +15°C° 0 mm 6 m/s 767 mmHg 46%
    05:00 +14°C° 0 mm 6 m/s 767 mmHg 47%
    06:00 +15°C° 0 mm 6 m/s 767 mmHg 47%
    07:00 +15°C° 0 mm 6 m/s 768 mmHg 48%
    08:00 +15°C° 0 mm 6 m/s 768 mmHg 48%
    09:00 +17°C° 0 mm 5 m/s 768 mmHg 45%
    10:00 +20°C° 0 mm 5 m/s 768 mmHg 41%
    11:00 +22°C° 0 mm 5 m/s 768 mmHg 37%
    12:00 +23°C° 0 mm 4 m/s 767 mmHg 35%
    13:00 +25°C° 0 mm 4 m/s 766 mmHg 34%
    14:00 +26°C° 0 mm 3 m/s 766 mmHg 32%
    15:00 +25°C° 0 mm 3 m/s 766 mmHg 34%
    16:00 +24°C° 0 mm 3 m/s 766 mmHg 36%
    17:00 +21°C° 0 mm 3 m/s 766 mmHg 38%
    18:00 +21°C° 0 mm 4 m/s 766 mmHg 38%
    19:00 +20°C° 0 mm 5 m/s 766 mmHg 37%
    20:00 +19°C° 0 mm 5 m/s 767 mmHg 37%
    21:00 +19°C° 0 mm 6 m/s 766 mmHg 36%
    22:00 +19°C° 0 mm 6 m/s 766 mmHg 34%
    23:00 +20°C° 0 mm 7 m/s 766 mmHg 33%
    Voir plus